Regional Weather Roundup
Issued by NWS Cleveland, OH

Home | Current Version | Previous Version | Graphics & Text | Print | Product List | Glossary On
Versions: 1 2 3 4 5 6 7 8 9 10 11 12 13 14 15 16 17 18 19 20 21 22 23 24 25 26 27 28 29 30 31 32 33 34 35 36 37 38 39 40 41 42 43 44 45 46 47 48 49 50
000
ASUS41 KCLE 180812
RWRCLE
OHIO REGIONAL WEATHER ROUNDUP
NATIONAL WEATHER SERVICE WILMINGTON, OH
300 AM EST SUN FEB 18 2018

NOTE: "FAIR" INDICATES FEW OR NO CLOUDS BELOW 12,000 FEET WITH NO
SIGNIFICANT WEATHER AND/OR OBSTRUCTIONS TO VISIBILITY.

OHZ001>008-015>018-024>027-034-035-043-044-180900-
   NORTHWEST OHIO

CITY           SKY/WX    TMP DP  RH WIND       PRES   REMARKS
DEFIANCE       CLOUDY    33  28  81 W6        30.18R WCI  28
FINDLAY        CLOUDY    34  28  79 W12       30.17R WCI  25
TOLEDO EXPRESS FAIR      30  29  96 W8        30.15R WCI  22
TOLEDO EXEC    MOCLDY    32  29  88 W8        30.16R FOG     WCI  25
LIMA           CLOUDY    32  29  88 W13       30.19R WCI  22
$$

OHZ009>014-019>023-028>033-038-089-180900-
   NORTHEAST OHIO

CITY           SKY/WX    TMP DP  RH WIND       PRES   REMARKS
CLE-HOPKINS    MOCLDY    32  30  92 W8        30.16R WCI  25
CLE-LAKEFRONT  CLOUDY    32  30  92 W9        30.14R FOG     WCI  24
CUY CO. ARPT   NOT AVBL
LORAIN-ELYRIA  CLOUDY    32  27  81 NW15      30.14R HAZE    WCI  22
ASHTABULA      CLOUDY    31  28  89 W7        30.11R WCI  24
AKRON-CANTON   FLURRIES  34  29  82 NW15      30.11R WCI  24
WOOSTER        CLOUDY    33  29  85 W10       30.13R WCI  25
MANSFIELD      CLOUDY    32  29  88 W10G20    30.14R WCI  24
YOUNGSTOWN     LGT SNOW  31  30  96 W6        30.09R FOG     WCI  25
$$

OHZ042-051>053-060>062-070>072-077>081-180900-
  SOUTHWEST OHIO

CITY           SKY/WX    TMP DP  RH WIND       PRES   REMARKS
CINC-COVINGTON FAIR      34  31  88 NW9       30.23R WCI  27
CINC-LUNKEN    CLOUDY    35  29  78 W7        30.26R WCI  29
HAMILTON       FAIR      34  28  79 NW10      30.25R WCI  26
DAYTON         CLOUDY    32  27  81 W18       30.22R WCI  20
WRIGHT-PAT AFB CLOUDY    33  28  82 W15       30.22R WCI  23
DAYTON GENERAL FAIR      33  26  75 NW8       30.21R WCI  26
WILMINGTON     MOCLDY    33  28  81 NW15      30.21R WCI  23
$$

OHZ036-037-039>041-045>050-054>059-063>069-073>076-082>088-180900-
  CENTRAL AND SOUTHEAST OHIO

CITY           SKY/WX    TMP DP  RH WIND       PRES   REMARKS
COLUMBUS       CLOUDY    35  28  75 W13       30.20R WCI  26
OSU AIRPORT    CLOUDY    34  29  82 W9        30.19R WCI  27
BOLTON FIELD   CLOUDY    34  28  79 W10       30.20R WCI  26
RICKENBACK AFB CLOUDY    34  29  83 NW12      30.21R WCI  25
NEWARK         CLOUDY    35  31  85 W9        30.17R WCI  28
MARION         CLOUDY    33  27  78 W12       30.18R WCI  24
LANCASTER      CLOUDY    35  29  78 W9        30.21R WCI  28
ZANESVILLE     CLOUDY    35  31  85 W10G20    30.17R WCI  27
NEW PHILLY     CLOUDY    35  31  85 W7        30.15R WCI  29
$$




USA.gov is the U.S. government's official web portal to all federal, state and local government web resources and services.